Home > Time Zones > World Clock > Weather > Peru > Cuzco > Past weeks

Flag for Peru Weather past 2 weeks in Cuzco, Cusco, Peru

Now
54 °F

Partly cloudy.


Feels Like: 54 °F
Forecast: 47 / 62 °F
Wind: No wind

Location: Cuzco Airport

Current Time: Dec 17, 2014 at 7:54:59 PM

Latest Report: Dec 17, 2014 at 7:00 PM


Visibility: 5 mi

Pressure: 30.42 "Hg

Humidity: 77%

Dew point: 46 °F

Location of CuzcoLocation

Historic Weather in Cuzco — Graph

°F

Cuzco temperature yesterday

Maximum temperature yesterday: 66 °F (at 2:00 PM)
Minimum temperature yesterday: 48 °F (at 12:00 AM)
Average temperature yesterday: 54 °F

Past Weeks' High & Low Weather Summary

 TemperatureHumidityPressure
High75 °F (Dec 6, 1:00 PM)93% (Dec 17, 1:00 AM)30.57 "Hg (Dec 17, 1:00 AM)
Low43 °F (Dec 7, 5:00 AM)18% (Dec 6, 2:00 PM)30.21 "Hg (Dec 8, 4:00 PM)
Average57 °F58%30.40 "Hg
* Reported Dec 2 6:00 PM — Dec 17 6:00 PM, Cuzco, Weather by CustomWeather, © 2014

Note: Actual official high and low records may vary slightly from our data, if they occured in-between our weather recording intervals... More about our weather records

Advertising

Cuzco weather history for previous 24 hours

 ConditionsComfort  
Time TempWeatherWind HumidityBarometerVisibility
6:00 PM
Dec 17
54 °FLight rain. More clouds than sun.1 mph77%30.39 "HgN/A
5:00 PM52 °FLight rain. Overcast.5 mph77%30.36 "HgN/A
4:00 PM54 °FScattered showers. More clouds than sun.8 mph77%30.36 "HgN/A
3:00 PM57 °FScattered showers. Broken clouds.9 mph63%30.36 "Hg6 mi
2:00 PM63 °FScattered showers. Broken clouds.8 mph56%30.36 "HgN/A
1:00 PM61 °FLight rain. Broken clouds.14 mph52%30.39 "HgN/A
12:00 PM66 °FBroken clouds.2 mph46%30.42 "HgN/A
11:00 AM61 °FBroken clouds.3 mph52%30.48 "HgN/A
10:00 AM57 °FScattered clouds.2 mph59%30.51 "HgN/A
9:00 AM54 °FBroken clouds.2 mph63%30.54 "HgN/A
8:00 AM50 °FBroken clouds.1 mph67%30.54 "HgN/A
7:00 AM48 °FBroken clouds.1 mph71%30.51 "HgN/A
6:00 AM45 °FBroken clouds.No wind87%30.51 "HgN/A
5:00 AM45 °FPartly cloudy.No wind81%30.48 "HgN/A
4:00 AM45 °FPartly cloudy.No wind81%30.48 "HgN/A
3:00 AM45 °FPartly cloudy.No wind81%30.48 "HgN/A
2:00 AM45 °FLight rain. Mostly cloudy.3 mph81%30.51 "Hg6 mi
1:00 AM43 °FRain. Mostly cloudy.No wind93%30.54 "Hg5 mi
12:00 AM45 °FRain. Mostly cloudy.No wind81%30.57 "Hg5 mi
11:00 PM
Dec 16
48 °FLight rain. Mostly cloudy.3 mph82%30.57 "Hg5 mi
10:00 PM48 °FRain. Mostly cloudy.No wind82%30.57 "Hg6 mi
9:00 PM48 °FThunderstorms. Mostly cloudy.1 mph82%30.54 "Hg6 mi
8:00 PM50 °FThunderstorms. Mostly cloudy.16 mph67%30.51 "Hg6 mi
7:00 PM59 °FScattered showers. Partly cloudy.10 mph51%30.39 "HgN/A
Weather by CustomWeather, © 2014

See weather overviewHow to use our weather pages